sat.trackr.live / text

‹ back to catalog

STARLINK-30079

NORAD 56706 · 2023-067U

PAYLOAD ACTIVE UNKNOWN

§ Identity

Operator
Country
US
Launch date
2023-05-19
Launch site
AFETR
Launch vehicle
Mass (kg)
RCS (m²)

Purposes: comms

External: N2YO · Heavens-Above · Gunter

§ Orbital elements

Epoch: 2026-05-25T05:17:39.744960Z

Period
94.32 min
Inclination
43.0027°
Eccentricity
0.0001491
Mean motion
15.26749043 rev/d
Perigee alt
484.5 km
Apogee alt
486.6 km
Semi-major
6,863.7 km
B*
2.4743e-5
RAAN
209.1410°
Arg perigee
265.9512°
Mean anomaly
94.1169°
Rev number
16,728

§ Raw data

STARLINK-300791 56706U 23067U   26145.22059890  .00000404  00000+0  24743-4 0  99962 56706  43.0027 209.1410 0001491 265.9512  94.1169 15.26749043167289

JSON: /api/v1/satellites/56706 · /tle

For live sub-satellite position, see the globe view (requires WebGL).

§ Visibility from observer

Set your observer location to see the next 7 days of passes ≥ 10°. The values pass through the URL so the page stays shareable.

No JS? Fill the form by hand. The geolocation button needs JavaScript.